Theta_e
313 313 312 311 311 311 310 310 311 310 311 312 311 312 314 314 314 317 322 322 318 315 319 331 334 331 332 335 336 335 333 331 330 330 332 334 335 338 341 343 347 350 352 352 351 351 352 352 351 352 351 351 351 350 350 351 350 350 350 350 349 350 349 349 350 350 351 351 351 352 353 353 354 353 352 351 350 348 345 342 339 337 337 336 335 333 333
314 312 312 311 311 311 311 311 311 310 311 311 311 312 312 313 315 316 316 318 318 318 325 333 332 330 332 333 333 332 331 330 330 330 331 332 333 335 336 339 342 345 348 352 353 352 352 352 353 352 352 352 351 352 351 351 351 351 351 351 351 351 351 351 351 351 351 352 352 353 353 353 354 355 354 353 352 351 349 347 344 342 340 339 338 336 336
315 313 312 312 312 311 311 311 311 311 311 311 311 311 313 315 318 318 317 319 320 322 329 333 330 329 330 330 330 330 329 329 329 329 330 330 331 333 335 337 339 341 344 348 351 353 353 353 353 353 353 353 353 353 353 352 353 353 352 353 353 352 352 352 352 352 352 353 353 354 354 354 355 355 355 355 354 353 352 350 348 345 343 342 341 339 338
315 314 312 312 312 310 310 311 312 312 311 311 312 311 312 318 324 325 322 321 323 326 329 330 329 329 329 328 329 328 328 328 328 329 329 329 330 332 334 336 338 340 341 344 347 350 351 353 354 353 353 353 354 354 354 354 354 354 354 355 354 354 354 353 354 354 354 354 354 354 355 355 355 356 356 356 356 355 354 353 351 348 346 344 342 341 340
317 314 313 313 312 310 312 315 312 311 312 311 311 313 317 324 329 329 326 325 327 327 327 327 328 328 328 328 328 327 327 326 327 328 328 328 328 330 332 334 336 338 340 342 343 346 349 351 353 354 354 354 354 354 354 354 355 355 355 356 355 356 356 355 355 355 355 356 356 356 356 356 356 357 357 357 357 356 356 355 354 351 349 346 343 343 342
318 317 315 314 311 310 314 315 311 310 312 311 314 320 325 327 327 326 327 327 327 325 325 325 326 327 327 327 326 325 325 325 325 326 327 327 327 328 329 332 333 334 338 340 341 342 345 348 350 352 354 355 354 354 354 354 355 355 356 357 357 358 357 357 357 357 357 357 356 357 357 357 357 358 358 358 358 358 357 357 356 354 352 348 345 344 343
317 319 317 313 312 312 312 312 311 312 312 315 320 326 327 325 324 323 324 325 325 323 323 323 324 326 326 325 324 323 323 324 325 325 326 327 327 327 329 330 330 330 334 338 340 339 340 344 348 350 352 354 355 356 355 354 355 355 355 356 358 359 359 359 359 358 358 358 358 358 358 358 358 358 359 359 359 359 359 358 357 356 354 351 347 344 343
315 317 316 313 312 313 312 313 316 317 317 320 323 327 327 323 321 322 322 323 323 322 321 321 322 324 325 325 323 323 322 322 323 324 325 326 327 328 329 329 329 331 332 335 339 339 338 341 344 346 349 353 354 355 356 355 355 355 355 355 356 357 358 359 360 360 359 359 359 359 359 359 359 359 360 360 360 360 360 360 359 358 356 354 351 347 345
314 315 315 314 313 313 316 319 319 318 318 318 320 323 326 322 320 321 321 321 322 321 320 321 320 322 326 326 323 322 322 322 322 323 324 325 326 327 328 328 329 332 332 333 336 338 339 340 340 338 342 350 353 353 355 356 356 356 356 356 355 356 355 356 357 359 360 360 359 360 359 360 360 360 361 361 361 362 362 361 360 359 357 355 353 350 347
316 314 315 316 315 315 317 319 318 315 314 315 317 320 323 321 319 319 320 321 322 321 320 320 320 322 328 328 323 321 322 322 321 322 323 324 324 325 327 328 329 330 332 333 335 336 338 341 339 335 336 344 350 352 354 355 356 357 357 356 357 356 356 355 354 355 359 360 361 360 360 360 361 361 362 362 362 363 363 362 361 360 358 356 354 350 349
317 314 315 316 315 316 319 318 316 314 313 315 317 318 321 320 316 316 319 320 321 321 320 320 320 322 325 325 321 320 321 322 321 321 321 323 324 324 326 328 329 328 330 332 334 336 337 339 340 340 339 342 346 348 351 355 355 356 357 357 357 357 356 357 356 355 356 359 360 361 362 362 362 363 362 363 364 364 363 363 363 362 360 358 355 352 350
317 315 315 316 314 315 319 318 315 313 313 316 317 317 320 319 314 314 318 319 320 320 320 319 319 320 321 321 319 319 320 321 322 321 320 322 324 325 325 326 327 328 328 328 330 334 336 337 338 340 342 345 345 344 347 353 357 357 359 360 359 358 358 358 358 357 356 357 360 362 364 364 364 364 364 364 364 364 364 364 363 363 362 360 358 355 352
316 315 316 315 314 317 318 315 314 313 313 315 316 317 318 316 313 315 317 318 319 320 319 319 319 319 319 319 318 318 319 321 322 321 321 321 323 325 326 326 327 327 326 328 330 332 334 336 336 336 339 342 345 345 346 351 356 357 359 361 360 359 358 359 360 359 358 358 360 361 363 362 364 365 364 365 365 364 364 364 363 363 363 361 360 358 356
315 315 316 315 315 316 315 313 312 312 314 317 317 315 314 314 314 315 315 316 318 318 318 319 318 318 318 318 318 318 319 320 321 322 321 321 321 323 325 327 328 328 327 329 331 331 332 334 335 335 335 337 340 343 345 348 352 354 355 357 358 359 359 359 360 360 360 361 361 361 360 361 362 364 365 365 365 365 365 365 364 364 363 363 362 360 358
315 314 314 314 315 315 312 312 314 314 316 316 314 312 313 315 315 314 314 315 316 316 316 317 316 317 317 318 318 318 318 319 320 321 322 322 321 322 323 326 327 328 329 330 330 330 331 333 334 335 335 335 336 339 341 343 346 349 352 354 355 356 358 358 359 360 360 361 361 361 361 361 361 362 363 364 365 365 365 365 364 364 364 363 362 361 359
316 315 314 314 315 314 311 312 313 314 313 312 311 312 314 315 313 312 312 313 313 314 314 314 315 317 317 317 318 318 318 318 319 320 322 322 322 321 321 324 326 328 329 330 330 331 331 333 334 334 335 335 336 336 338 339 340 343 347 350 353 355 356 357 359 360 360 361 360 361 361 362 363 363 363 364 365 365 365 365 365 364 364 364 363 362 361
315 315 314 313 311 311 310 310 311 311 310 310 312 313 313 312 310 311 311 311 312 313 313 313 314 316 317 317 318 318 318 319 319 319 321 322 322 321 320 322 325 326 327 328 329 331 331 332 333 334 335 336 336 336 338 338 338 339 340 343 347 351 354 356 358 360 361 361 360 360 360 361 362 363 364 365 365 365 366 365 365 365 364 364 363 362 362
312 312 312 310 309 310 310 310 310 310 310 310 311 312 311 309 309 310 309 310 311 311 311 312 313 314 316 317 317 317 318 319 319 319 320 322 322 321 320 321 323 325 326 326 328 329 331 332 333 334 335 336 336 336 337 338 337 338 338 338 339 344 349 354 356 358 360 360 359 359 360 361 362 363 363 364 364 364 365 365 365 365 365 364 363 362 361
312 312 313 311 310 310 310 309 310 309 309 309 309 309 309 308 309 309 309 309 310 310 311 311 312 313 315 315 317 317 318 319 319 319 320 321 322 322 321 320 321 322 324 325 327 328 330 332 333 334 334 335 336 337 337 338 338 338 339 338 336 338 343 350 355 358 359 360 361 360 361 361 362 363 363 363 364 364 364 364 365 365 364 364 363 362 362
311 312 311 309 309 310 309 309 309 308 309 309 308 308 308 308 308 308 309 309 310 310 310 311 311 312 313 314 315 316 316 318 319 319 320 321 321 321 321 321 320 321 322 324 325 328 330 332 333 334 335 335 336 337 338 338 339 340 340 340 338 337 340 348 355 359 359 360 362 363 362 361 361 362 362 362 363 363 363 363 363 364 364 364 363 363 362
311 311 310 308 309 310 308 308 308 308 308 308 308 307 308 307 308 309 309 309 310 310 310 310 311 311 312 313 314 315 316 317 318 318 320 320 321 321 322 321 320 320 321 323 324 327 330 332 332 333 334 335 336 337 338 339 340 341 342 342 341 340 341 345 353 358 359 360 362 363 362 362 361 361 360 360 360 360 360 360 362 362 363 364 362 362 362
313 311 310 309 310 311 309 308 308 307 307 307 307 307 307 308 308 309 309 309 310 310 310 310 310 311 312 312 313 314 315 316 317 318 319 320 321 321 321 321 321 320 321 322 323 324 328 331 332 333 333 335 336 337 338 339 340 341 342 343 343 342 342 344 350 357 360 360 362 364 364 362 362 361 361 361 361 360 360 361 361 362 363 363 362 362 362
313 310 309 309 309 309 309 308 308 307 307 307 306 306 307 308 308 308 309 309 310 310 310 310 310 310 311 312 313 313 314 315 316 317 318 320 321 321 321 321 321 320 320 321 321 322 325 328 330 331 331 332 334 335 336 338 339 340 341 342 342 342 343 343 346 353 359 360 362 365 365 363 363 363 363 363 362 362 362 362 363 363 364 364 363 363 363
310 310 310 309 308 309 309 309 309 308 307 307 306 306 307 307 307 308 309 309 310 310 311 311 311 311 311 312 313 314 314 315 316 317 318 319 320 320 321 321 321 320 320 321 321 321 322 324 326 328 328 329 331 333 335 336 337 338 340 341 342 343 344 344 344 349 356 361 362 365 366 365 364 364 363 364 363 362 363 363 364 364 364 364 364 363 363
311 311 310 309 309 309 309 309 309 308 307 306 306 306 306 307 307 308 308 308 309 310 311 311 311 311 312 313 314 315 315 316 316 316 318 319 320 320 320 320 321 321 320 320 320 321 321 322 323 324 325 326 328 331 334 334 335 336 338 340 342 342 344 345 344 345 352 358 361 364 366 366 365 364 364 364 364 363 363 364 364 365 365 365 364 364 363
311 311 310 310 310 310 309 309 309 308 307 306 305 306 306 307 307 307 307 307 308 310 310 311 311 311 311 313 314 315 315 316 316 317 318 319 320 320 320 320 321 321 320 320 320 320 321 321 322 322 324 325 326 330 333 334 334 335 336 339 341 342 344 345 345 345 348 353 358 362 365 366 366 365 365 366 365 365 365 364 365 365 365 365 365 364 364
311 311 310 309 309 310 310 310 309 308 307 306 305 305 306 307 307 306 306 307 308 309 310 311 311 311 311 312 313 314 315 316 317 317 318 319 320 320 320 320 321 320 320 320 321 320 320 321 321 321 322 323 324 327 331 332 333 335 336 338 340 342 343 345 346 346 347 349 353 357 361 364 366 366 365 365 366 366 366 366 365 365 365 365 364 364 363
312 311 310 310 310 310 310 309 309 309 308 306 305 305 306 306 306 306 306 307 308 309 310 310 311 311 312 312 313 314 315 316 318 318 319 319 319 319 319 320 321 321 321 320 321 320 320 320 321 321 321 322 323 324 326 328 331 334 337 338 340 341 343 345 346 347 347 347 350 353 355 359 362 364 365 366 365 365 366 366 366 366 366 365 365 364 363
311 311 311 311 311 311 310 310 310 309 308 306 305 305 305 305 305 305 306 307 308 309 310 310 311 311 313 313 314 314 315 317 318 319 319 319 319 319 320 320 321 321 321 321 321 319 319 320 321 321 321 322 322 323 324 325 328 332 336 338 339 341 342 344 346 347 348 348 350 351 353 355 357 360 362 365 366 366 366 366 367 367 367 366 365 365 365
311 311 312 311 311 311 311 310 310 309 308 306 306 305 305 305 305 305 306 308 308 309 310 310 311 311 312 314 315 315 316 318 319 319 319 319 319 320 321 321 321 321 321 320 319 318 318 319 320 320 321 321 321 322 322 322 325 329 333 336 338 340 342 343 344 345 347 348 349 351 353 354 355 357 359 361 364 365 366 366 367 367 367 367 366 365 365
312 311 312 312 311 311 311 310 310 309 307 306 306 306 305 305 304 305 306 308 309 310 310 311 312 312 312 314 316 318 318 318 319 319 319 319 320 321 321 321 321 321 320 320 318 317 318 319 320 320 320 321 321 322 321 321 323 327 331 334 337 338 340 342 344 343 344 346 347 348 351 353 354 356 357 358 360 362 364 365 366 367 367 367 367 367 366
312 311 311 311 311 311 311 310 310 309 307 306 306 306 305 304 304 305 307 308 309 310 310 311 312 314 314 315 317 318 318 319 319 319 319 320 320 321 320 320 320 319 318 317 317 317 318 319 319 320 319 319 320 321 321 321 322 325 328 332 335 337 338 339 341 342 343 344 344 345 347 350 352 354 355 357 358 359 361 362 363 364 366 367 367 366 365
312 311 311 311 311 311 311 310 310 308 307 307 307 306 305 305 304 305 307 308 309 310 311 311 312 314 316 316 317 318 319 319 319 319 318 319 320 320 320 320 319 317 316 316 316 317 317 318 319 319 319 318 318 320 321 321 322 324 327 329 332 335 337 337 338 339 341 342 343 344 344 346 349 351 352 354 355 356 358 359 360 362 363 364 364 364 363
311 311 311 311 311 311 310 310 309 308 307 307 307 307 306 305 304 305 306 308 309 310 310 311 311 313 315 316 317 318 318 318 318 317 317 318 318 318 318 318 317 316 315 315 315 315 316 317 318 318 319 318 318 320 321 321 321 323 326 327 329 333 336 336 337 337 338 338 340 342 343 344 346 347 349 351 352 353 354 356 357 359 360 361 362 362 362
311 311 311 311 310 310 309 309 308 307 307 307 307 307 306 305 305 305 306 307 309 309 309 309 310 311 312 313 315 316 315 315 314 314 314 315 315 315 315 315 314 314 314 314 314 314 315 316 317 318 318 318 318 319 321 321 321 324 326 327 326 329 333 335 335 336 337 338 338 339 340 342 344 346 348 348 349 351 353 354 355 357 358 359 360 361 362
311 311 311 310 310 309 309 308 307 307 307 307 307 307 306 305 305 305 305 307 308 309 308 308 309 309 309 310 311 311 311 311 311 311 311 312 312 312 312 312 312 312 312 312 313 313 313 315 316 317 318 318 318 319 321 322 322 324 326 327 326 327 329 332 333 332 334 337 337 336 336 338 340 342 345 346 346 347 349 351 352 354 355 356 357 357 358
311 311 310 310 310 309 308 308 307 307 307 307 307 307 306 305 305 305 305 306 307 309 308 307 307 308 309 309 309 309 309 309 309 309 309 310 310 310 311 310 310 310 310 310 311 311 312 313 314 316 317 318 318 319 320 321 322 322 325 327 327 327 327 330 331 331 332 335 335 333 333 334 335 338 341 342 343 344 346 347 349 349 351 353 354 354 353
311 310 310 310 309 309 308 308 307 307 307 307 306 306 306 305 305 305 305 306 306 308 308 307 307 307 307 308 308 308 308 308 308 308 308 308 308 309 309 309 308 308 308 308 309 310 310 311 312 314 316 317 318 319 320 321 321 322 323 325 327 328 327 328 328 330 331 333 333 332 331 332 333 335 336 336 338 340 343 345 345 345 345 348 350 350 349
310 310 310 310 309 308 308 307 307 307 307 307 306 306 306 305 305 305 305 305 305 306 307 307 306 306 305 306 306 306 306 306 307 307 307 307 307 307 307 307 307 307 308 308 309 309 310 310 311 313 315 316 318 319 319 319 320 321 321 323 325 327 328 327 328 329 330 331 331 331 330 330 331 331 331 331 332 335 337 338 338 339 340 342 343 345 347
310 310 310 309 309 308 308 307 307 307 307 306 306 306 306 305 305 305 305 304 304 305 306 307 306 306 305 305 305 305 305 305 305 306 306 306 306 306 306 306 306 307 307 308 308 309 309 309 311 313 314 316 317 318 319 318 318 319 321 322 324 326 327 327 328 329 329 329 330 330 330 328 327 327 326 326 326 328 330 331 332 333 335 336 336 340 345
310 310 310 309 309 308 308 307 307 307 307 306 305 305 306 305 305 304 304 304 304 304 305 305 305 305 305 304 304 304 304 304 304 304 305 305 305 305 305 305 305 305 306 306 307 307 307 308 309 311 313 315 316 317 317 316 317 318 319 321 322 325 326 326 328 329 328 327 327 328 328 326 325 324 324 324 324 324 325 326 326 327 329 330 331 334 337
310 310 309 309 308 308 308 307 307 307 306 306 305 305 305 305 305 305 304 304 303 303 303 303 303 303 303 304 303 303 303 302 302 302 303 303 303 303 304 304 304 305 305 305 306 306 307 307 308 309 311 312 313 314 314 315 316 317 318 319 321 323 325 326 327 328 327 326 326 326 325 324 324 323 322 323 322 322 322 323 322 322 324 326 326 327 327
310 310 309 309 308 308 308 307 307 307 306 306 305 306 305 305 305 305 304 304 303 303 303 303 303 302 302 302 302 302 301 301 301 301 302 301 302 302 302 302 303 304 304 304 305 305 306 306 306 306 308 310 312 313 313 314 315 317 318 318 319 322 324 325 325 325 325 325 325 324 324 323 323 322 322 321 320 320 321 320 319 320 322 324 324 323 322
310 309 309 309 309 308 308 307 307 307 306 305 305 306 305 305 305 305 304 304 304 303 303 303 303 302 302 302 301 301 300 300 300 301 301 301 301 301 301 301 302 303 303 304 304 304 304 304 304 305 307 309 311 312 313 314 314 316 316 317 318 319 321 323 323 323 323 323 324 323 323 323 322 322 321 320 319 319 319 317 315 316 320 324 322 318 318
310 309 309 309 309 308 308 308 307 307 306 305 306 306 306 305 305 304 304 304 304 303 303 303 303 302 302 302 301 300 300 300 300 300 300 300 300 300 300 300 301 302 302 303 303 303 303 303 304 304 306 308 309 311 312 312 313 314 314 315 316 316 318 320 321 322 322 321 321 321 321 321 321 321 321 320 319 319 319 317 315 315 318 322 321 316 314
309 310 309 309 308 308 307 307 307 306 306 306 306 306 305 305 305 304 304 304 304 304 303 303 303 303 302 302 301 301 300 300 299 299 299 299 299 299 299 299 300 300 301 302 302 302 302 303 303 304 304 306 308 309 310 310 311 311 312 313 313 314 315 316 318 319 319 319 319 319 318 318 318 319 319 320 319 318 318 318 318 317 317 319 320 316 314
309 309 308 308 308 307 307 307 306 306 306 306 305 305 305 306 305 304 304 304 304 304 303 303 302 302 302 302 301 301 301 300 300 299 299 298 298 298 298 298 298 299 299 300 301 301 302 302 302 303 303 304 306 307 307 308 308 309 309 309 310 310 311 312 313 315 316 317 317 317 316 316 316 316 316 317 317 317 316 316 316 316 315 316 316 314 312
309 308 308 308 308 307 307 307 306 306 306 305 305 305 305 305 305 304 304 304 304 303 303 303 302 302 302 301 301 301 301 301 301 300 299 298 297 297 298 297 297 297 297 298 299 300 301 302 302 302 302 303 304 304 305 305 306 307 307 306 306 307 307 308 309 310 312 314 314 315 314 314 313 313 313 314 314 315 315 314 314 314 314 314 313 312 311
308 308 308 308 308 307 307 306 306 305 305 305 305 305 305 305 305 304 304 304 303 303 303 303 302 302 302 301 301 301 301 301 301 300 299 298 297 297 297 297 297 297 297 296 297 298 299 300 301 301 301 302 302 302 302 303 305 305 305 305 305 304 305 305 306 307 309 310 311 312 312 312 311 311 311 312 311 312 313 313 312 312 312 312 311 311 311
307 307 307 307 308 308 307 306 305 305 305 305 305 305 305 305 305 304 304 304 303 303 303 303 303 302 302 301 301 300 300 300 300 300 299 299 298 298 297 296 296 296 296 296 296 296 297 298 299 299 300 301 301 301 301 301 302 303 303 304 304 304 304 304 305 306 307 308 309 309 309 310 310 309 309 309 309 309 309 310 309 309 309 309 309 308 308
307 307 307 307 307 307 306 305 305 305 305 305 305 305 305 305 304 304 304 304 303 303 303 303 303 302 302 301 301 300 300 300 300 300 299 299 299 299 298 297 296 295 295 295 295 295 295 295 295 296 297 298 299 300 300 300 300 301 301 302 303 303 303 303 304 304 305 306 307 307 307 307 308 308 308 307 307 307 307 307 307 307 307 307 307 306 305
306 306 306 306 306 305 305 305 305 305 305 305 304 304 304 304 304 304 304 303 303 303 303 303 303 302 302 301 301 300 300 300 300 300 299 299 299 299 299 298 297 296 295 294 294 294 294 294 294 294 294 295 296 297 297 298 298 298 299 300 300 301 302 302 303 303 303 304 304 305 305 305 305 305 305 305 305 305 304 305 305 305 305 305 305 305 304
Wind_Speed
3 3 3 2 1 2 3 4 7 8 8 7 4 3 5 2 1 5 8 8 8 8 8 8 10 12 12 13 17 19 24 33 38 41 42 42 41 40 36 32 27 20 11 4 14 23 30 33 36 37 38 40 42 44 45 46 46 47 48 49 50 50 51 51 50 48 46 44 43 42 40 39 38 38 39 40 40 40 41 42 42 42 41 41 40 40 39
2 2 3 3 4 3 4 5 6 7 7 8 6 5 6 5 5 8 9 11 9 5 4 5 9 12 13 16 20 23 27 31 35 38 39 39 41 41 38 34 30 26 22 15 7 13 21 27 32 34 35 37 39 41 42 43 44 45 46 47 49 49 50 51 50 48 46 45 44 43 42 41 39 39 38 38 39 39 40 40 40 40 40 41 41 40 39
4 4 4 4 4 3 5 5 6 6 6 6 5 4 4 4 5 6 8 9 7 4 7 9 11 14 16 19 22 25 26 28 31 34 36 39 41 40 38 35 32 28 25 21 15 9 10 17 24 29 32 34 36 38 39 40 42 43 44 46 47 49 50 49 49 48 47 46 45 44 43 42 41 39 39 38 38 38 38 38 39 39 40 40 40 40 39
4 4 6 7 6 6 5 5 6 5 3 3 3 4 5 4 4 6 6 5 4 6 10 12 11 14 17 18 19 21 23 27 29 31 33 36 37 38 38 35 33 31 27 23 19 14 9 7 14 21 27 30 32 34 36 37 38 39 41 44 45 46 47 47 47 47 47 46 45 45 43 42 41 40 39 39 39 38 38 37 37 38 39 39 40 39 39
3 5 4 5 6 6 5 4 2 1 2 4 5 5 5 4 2 3 4 3 3 7 10 10 9 10 13 14 16 20 22 25 27 28 29 32 33 35 36 35 33 32 29 25 21 17 14 9 5 10 17 23 27 31 33 34 35 35 37 39 42 43 44 45 46 46 46 46 46 45 43 41 40 40 40 40 40 39 38 37 37 37 38 38 39 39 39
2 6 3 4 4 3 4 4 1 1 3 4 3 5 4 3 3 2 3 4 5 7 9 9 9 7 10 12 15 18 20 23 25 26 27 29 30 32 34 35 34 32 30 26 21 18 16 12 8 5 7 15 21 26 31 33 33 34 34 34 36 39 41 43 44 45 45 46 45 44 43 41 40 40 40 40 40 39 38 38 38 38 37 38 38 38 38
1 3 4 4 2 4 4 5 4 4 3 3 3 5 3 3 6 5 6 7 7 9 10 11 12 5 10 15 19 20 21 23 23 24 24 25 27 29 31 33 34 32 29 27 23 19 18 15 10 7 4 9 14 19 26 31 33 35 36 35 35 36 37 39 42 44 45 45 44 43 42 40 40 40 40 39 38 38 38 38 39 38 38 38 38 38 38
0 1 2 1 4 4 4 6 6 5 3 2 3 4 2 4 6 5 6 6 6 10 12 15 18 9 6 12 21 23 22 23 21 21 22 22 24 25 26 29 31 30 27 26 24 20 18 18 14 10 7 3 9 12 17 26 32 34 37 38 38 38 37 36 38 41 43 44 43 42 41 41 41 40 39 39 37 36 37 37 38 38 38 38 38 38 38
1 1 2 3 4 6 5 3 3 4 3 2 3 3 3 3 6 5 6 5 7 11 13 17 24 16 3 4 16 23 22 22 20 19 19 21 22 23 25 26 27 27 25 24 24 21 17 18 18 14 11 7 3 6 8 15 25 30 34 36 38 39 39 37 35 36 40 43 43 42 41 41 41 40 39 37 36 35 35 36 36 37 37 38 38 38 38
2 2 2 3 3 3 3 3 3 4 6 4 1 1 3 2 7 10 8 6 8 11 13 17 21 15 1 2 10 19 22 21 21 19 18 19 21 22 24 25 25 26 27 24 23 21 18 16 16 16 14 11 4 2 3 5 13 22 28 32 35 38 38 37 35 34 36 40 43 43 42 42 42 41 39 37 35 34 34 34 33 34 34 35 37 38 38
2 3 2 2 2 4 4 4 5 9 10 4 0 1 2 1 9 14 10 9 11 11 13 16 14 9 3 1 9 18 20 19 20 20 18 18 20 20 21 23 23 24 27 26 24 21 19 17 15 12 11 10 7 3 2 2 5 12 17 21 25 29 29 31 33 33 33 36 41 43 43 42 41 41 39 37 35 34 34 33 32 31 32 33 35 37 38
3 3 2 3 3 4 4 4 6 11 11 6 2 3 3 3 13 17 12 12 14 12 14 14 8 3 2 5 11 18 19 16 17 19 18 17 18 19 20 22 23 23 24 27 27 25 22 20 19 15 11 9 6 5 6 5 3 3 6 9 13 17 18 21 26 29 30 33 37 41 42 41 41 42 40 39 37 36 35 34 33 32 32 33 34 35 36
4 4 3 3 3 3 4 3 7 9 8 4 2 4 3 9 17 18 14 15 17 15 15 13 7 6 9 12 15 18 17 16 16 17 18 17 16 17 19 20 22 24 23 24 27 27 25 23 22 21 18 13 9 5 7 9 8 6 7 8 10 12 14 16 18 20 23 27 31 36 39 40 40 42 42 40 39 38 36 35 34 34 33 33 34 34 35
2 2 2 2 4 3 3 4 8 4 0 2 3 5 11 14 16 17 16 16 16 16 16 15 15 17 18 17 17 17 16 16 17 16 18 19 17 17 17 18 20 22 22 22 23 25 26 25 24 23 22 19 15 11 8 10 12 12 11 11 11 12 14 15 16 16 19 22 25 30 34 37 39 41 42 42 41 39 38 37 36 35 34 34 34 35 35
1 1 1 3 4 2 3 6 5 1 2 4 9 16 16 13 13 16 17 16 16 16 18 19 20 22 21 19 18 18 16 15 16 16 17 19 19 18 17 18 19 20 21 21 21 22 25 25 24 23 23 22 20 17 15 14 14 14 13 13 13 13 14 15 16 18 20 22 24 26 29 34 38 40 40 41 42 41 40 39 38 37 36 36 36 36 37
2 2 3 3 3 5 4 2 3 6 9 12 15 15 14 12 13 16 18 20 19 18 19 21 22 23 23 21 18 18 18 16 16 16 16 16 18 18 17 17 18 19 20 20 19 20 21 23 24 23 23 23 22 20 19 18 19 18 15 13 14 14 14 14 16 18 21 23 25 25 26 30 35 39 40 40 41 42 42 41 40 39 38 38 38 38 38
3 4 7 6 4 4 7 9 10 12 14 16 13 11 11 13 14 16 20 23 23 21 22 23 22 22 23 23 20 18 18 18 17 16 16 15 16 17 16 16 16 18 19 19 18 19 19 21 22 22 23 23 23 23 22 21 22 21 19 16 14 14 14 14 15 17 19 21 25 26 26 28 33 37 38 40 41 42 43 43 42 41 40 40 40 40 40
3 7 13 14 13 15 16 13 13 15 19 18 14 12 13 15 17 19 22 24 25 24 24 24 23 22 23 24 23 19 18 18 18 17 15 14 15 16 16 16 16 17 18 18 18 18 19 20 21 22 22 23 24 25 25 24 24 25 23 21 18 16 15 15 16 16 17 19 22 24 25 28 31 34 35 37 38 40 41 43 43 43 42 42 42 42 41
1 4 7 7 7 11 15 17 20 22 21 17 15 15 17 19 20 21 22 23 25 26 25 25 25 24 23 25 26 23 19 18 19 18 15 14 15 15 15 16 16 16 17 18 18 17 17 19 20 21 22 23 24 25 25 25 25 26 26 24 22 19 17 16 16 16 17 17 18 21 24 27 31 33 34 36 38 40 41 42 43 44 44 43 43 43 43
4 5 8 9 12 18 21 20 19 16 14 14 16 19 21 20 20 21 21 21 23 24 25 26 26 26 25 26 27 27 23 19 19 19 17 15 15 16 16 16 16 16 16 16 16 15 15 16 17 19 21 22 24 25 25 24 24 26 26 25 24 22 18 16 16 16 16 16 17 18 21 25 30 32 34 36 38 39 40 41 42 43 44 44 43 43 43
4 8 12 13 14 16 16 12 10 10 12 16 19 21 21 20 20 20 21 21 21 23 25 27 27 27 27 26 27 28 27 23 21 20 18 17 16 17 17 16 16 16 16 15 14 12 12 13 14 15 17 20 22 23 24 24 24 24 25 25 25 22 18 17 17 16 15 15 16 17 19 22 26 30 33 35 36 36 36 37 38 39 41 43 41 40 41
3 7 11 9 5 7 11 11 11 12 13 16 18 20 21 20 19 20 21 22 22 23 24 26 27 29 29 27 26 28 29 27 24 21 19 18 17 17 17 17 16 17 17 15 13 11 10 11 12 13 14 16 18 20 22 23 23 23 23 25 26 24 20 17 16 16 16 15 15 16 17 20 24 29 33 35 36 36 36 37 37 38 40 41 39 38 39
8 14 16 12 9 10 14 14 13 12 13 15 18 20 20 20 20 21 22 23 23 24 24 25 26 29 30 28 26 27 28 29 27 23 20 20 18 17 18 17 17 18 18 16 14 11 9 9 9 11 12 13 14 16 17 20 22 22 22 24 26 25 22 19 16 14 14 14 15 15 15 19 23 28 32 35 38 38 38 39 39 40 42 42 40 39 40
16 20 19 13 12 15 16 15 15 14 14 16 18 19 20 21 21 22 23 24 24 24 25 26 26 27 29 28 26 25 26 27 27 24 21 19 19 18 18 18 19 20 20 18 15 13 11 9 9 10 11 12 14 15 15 16 19 20 21 23 24 24 23 21 18 14 12 12 14 14 15 18 23 28 31 35 38 39 40 41 42 42 42 42 42 41 41
21 23 19 14 15 17 16 16 17 15 14 15 17 19 19 20 20 22 23 24 25 24 25 27 27 27 27 27 26 25 24 24 25 24 21 20 20 20 20 20 20 21 22 20 17 14 12 10 9 10 10 10 12 14 15 16 17 19 20 21 22 22 21 21 19 15 13 12 13 14 15 18 22 27 32 35 38 39 40 42 42 43 43 43 42 41 41
27 25 19 14 15 18 17 17 18 15 13 16 18 19 19 19 20 21 23 24 24 22 22 24 27 28 29 28 27 26 25 23 23 23 22 21 21 21 21 21 21 21 23 22 19 16 14 12 10 10 10 9 10 12 14 16 17 19 20 20 20 19 19 19 20 17 15 15 15 15 17 20 23 27 32 36 39 40 41 42 43 44 44 43 43 41 41
26 26 20 15 15 18 18 17 16 14 14 17 19 19 19 19 20 22 22 22 21 20 20 22 25 28 30 31 30 28 26 24 23 23 23 23 22 22 22 22 21 22 23 23 20 18 16 14 12 11 10 9 9 10 12 14 16 18 19 19 19 18 16 17 18 18 17 16 16 17 18 21 25 28 32 35 38 41 43 44 45 46 45 43 42 40 40
21 23 22 19 18 18 15 13 14 15 15 17 18 18 18 19 21 22 23 21 20 19 19 20 23 27 30 31 31 29 27 25 23 23 23 22 22 22 22 22 22 23 24 23 21 20 17 15 14 13 11 10 10 10 11 12 14 16 16 17 18 18 16 15 17 18 18 18 18 18 18 20 23 27 32 36 39 41 43 45 47 47 46 44 43 41 40
19 20 22 23 22 18 15 15 16 16 15 16 17 18 19 21 21 22 23 22 22 22 21 20 21 24 26 28 29 28 27 25 23 21 20 21 22 22 21 22 22 23 24 24 23 21 19 17 16 15 13 12 11 11 11 13 14 14 14 15 16 17 17 16 16 18 19 19 19 20 19 20 22 26 30 35 40 42 43 45 47 48 47 46 45 44 42
20 19 20 21 19 18 18 18 17 16 15 15 16 17 20 21 22 23 23 23 22 23 23 22 22 24 25 24 24 26 25 23 21 20 20 21 22 21 20 20 22 23 24 24 23 22 20 19 17 15 15 13 12 12 12 13 14 14 14 13 13 15 16 16 17 18 20 21 21 21 22 23 24 25 28 32 37 40 43 45 47 47 48 47 47 46 44
17 18 19 18 18 18 19 18 16 15 14 14 15 17 20 21 22 24 24 23 22 24 24 22 19 22 23 21 20 22 23 21 20 20 20 20 20 19 18 19 21 22 23 23 21 19 19 19 18 16 15 14 14 13 13 14 14 14 13 12 11 11 12 14 16 18 20 21 22 21 22 24 26 27 29 32 35 39 42 45 46 47 47 48 48 48 45
12 15 17 18 18 17 17 16 15 14 12 12 14 16 18 20 22 24 24 23 22 22 23 22 18 18 19 17 17 18 19 19 20 20 19 18 17 17 17 17 19 20 21 20 19 17 17 18 19 18 16 15 15 15 14 14 14 13 13 13 11 10 10 11 13 16 19 21 22 22 22 23 26 28 30 33 35 38 41 43 46 47 47 47 48 48 46
15 16 17 18 18 18 17 15 13 11 10 11 12 14 16 18 20 22 22 23 21 19 20 22 19 13 14 15 15 15 15 18 19 18 17 16 15 14 14 16 17 17 16 16 15 16 16 17 19 20 19 17 16 16 15 14 13 13 13 12 11 11 11 10 11 13 16 18 21 24 25 24 25 27 29 32 34 36 38 41 44 46 48 48 49 49 48
17 14 12 12 13 13 12 11 9 8 8 9 10 12 14 17 19 21 22 22 20 16 16 21 20 11 8 12 15 15 16 18 18 16 14 13 11 9 10 12 14 14 13 13 13 14 14 16 19 21 20 18 17 16 15 14 13 12 13 13 11 11 12 11 11 12 13 14 17 21 26 27 27 27 28 31 33 34 37 40 42 44 46 48 49 50 49
14 11 9 8 8 7 7 7 6 5 6 9 10 11 13 16 18 19 21 21 19 14 13 17 19 14 8 3 4 11 14 14 14 12 9 8 6 5 5 7 9 11 12 13 14 13 13 14 17 19 19 18 16 16 15 14 12 12 13 13 12 11 12 13 14 14 15 15 15 16 20 25 28 29 29 30 32 34 36 38 41 43 44 45 47 49 50
13 11 10 10 8 7 6 6 4 3 6 8 9 10 13 15 17 18 19 20 18 12 10 14 16 14 14 15 13 13 13 12 11 9 6 4 2 1 3 5 6 8 10 12 13 13 12 13 15 17 18 18 17 16 15 13 11 12 13 12 12 12 12 13 15 16 17 18 18 17 17 19 23 27 28 29 30 32 34 37 38 40 42 45 46 48 48
14 13 11 9 7 6 6 5 3 3 5 8 9 10 12 14 15 16 16 18 16 12 9 10 12 11 12 13 12 12 13 12 10 9 8 7 5 4 4 4 5 5 5 7 10 12 13 14 14 15 17 18 17 17 16 13 11 11 12 13 12 12 12 13 15 16 16 17 17 17 17 16 17 20 23 25 26 28 32 35 35 35 39 44 46 45 44
14 11 8 7 6 6 5 3 3 4 5 7 8 9 10 12 14 14 14 15 16 12 9 9 10 11 10 10 10 11 11 11 10 10 9 8 8 7 6 6 6 7 7 7 9 11 13 14 14 13 14 16 17 17 16 13 11 11 11 12 12 13 13 13 15 16 16 14 14 14 15 15 14 14 15 19 22 24 27 30 29 28 31 37 40 41 39
13 11 9 7 6 5 4 4 4 4 4 6 7 9 9 11 12 13 12 13 14 13 10 9 9 10 11 11 12 13 13 11 10 9 8 8 8 7 6 6 5 6 6 6 8 9 10 12 14 13 12 14 16 16 15 14 13 11 11 11 11 12 13 13 14 15 14 13 11 10 11 12 11 11 10 12 15 17 19 20 21 21 24 28 32 35 35
14 13 11 9 7 7 6 5 4 4 4 5 7 8 9 10 11 12 12 13 12 12 10 9 9 9 10 10 12 13 13 11 10 9 8 8 7 6 6 6 6 6 7 7 8 10 10 12 13 12 11 12 14 14 13 13 14 12 11 11 10 10 11 11 12 12 12 11 9 8 8 8 8 7 7 6 7 7 8 10 13 17 22 25 27 31 34
14 13 12 10 9 8 8 6 5 4 3 3 6 7 8 9 10 11 13 13 12 10 10 10 10 10 10 9 10 10 11 11 10 8 7 7 7 9 10 9 9 10 10 9 9 10 11 11 12 12 11 12 12 12 11 12 13 13 11 10 9 9 10 9 9 10 10 10 8 7 7 6 6 6 6 5 4 2 3 8 12 16 20 23 25 27 29
14 13 13 12 10 9 9 7 5 4 2 2 4 7 8 8 8 10 11 11 10 10 11 11 12 11 11 10 9 9 10 12 12 11 10 10 10 12 12 11 11 12 11 9 9 10 11 11 12 13 12 12 13 12 11 10 11 11 9 8 7 7 7 7 7 7 9 9 8 7 7 6 7 9 9 8 8 8 9 11 14 16 17 19 20 21 22
15 14 14 13 11 10 9 8 6 4 3 1 3 5 7 8 8 9 9 9 10 11 11 12 13 14 14 14 14 14 14 14 14 14 15 14 14 14 13 12 12 13 12 9 8 9 10 11 13 15 14 12 12 12 10 8 7 7 7 6 6 5 5 6 6 6 7 8 8 8 7 8 9 11 12 13 13 14 14 16 18 19 19 19 19 22 25
16 15 15 14 11 10 9 8 7 5 3 0 2 4 6 8 9 9 8 8 9 11 11 12 13 14 14 16 17 18 18 17 16 16 16 16 17 18 18 15 13 13 13 11 9 10 11 13 14 14 13 12 11 10 9 6 5 5 5 6 6 6 6 5 6 6 7 7 7 7 8 8 9 11 12 14 15 16 16 17 19 21 21 21 22 25 28
17 15 14 13 11 10 9 8 7 5 3 1 1 2 4 6 8 9 8 7 8 9 10 11 12 12 12 13 15 17 18 19 20 19 19 18 19 20 20 18 16 14 13 12 11 11 12 13 13 13 12 11 10 9 7 5 5 5 6 7 8 8 8 7 7 8 8 8 8 8 8 9 10 10 11 12 13 15 15 16 18 20 21 20 20 22 25
18 15 14 12 10 8 7 6 6 6 4 2 1 1 1 4 7 7 7 6 6 7 9 9 9 10 10 11 12 15 17 20 22 22 21 19 18 17 18 19 18 17 14 13 13 13 13 13 13 13 12 11 9 8 7 6 6 6 7 8 9 10 10 10 10 10 10 10 9 9 9 10 10 11 11 11 11 12 13 13 14 16 19 19 19 20 23
18 15 13 12 10 9 8 7 7 7 4 2 2 1 1 3 5 6 6 6 6 6 7 8 9 9 10 10 12 14 16 18 21 23 22 20 18 17 17 18 19 18 17 16 15 15 14 14 14 14 13 11 10 9 8 7 8 8 9 11 12 12 12 13 13 12 12 12 11 10 10 10 11 11 12 12 12 12 12 13 14 15 17 18 19 20 22
19 16 14 13 12 11 9 9 8 7 5 3 2 1 1 1 2 4 5 5 5 6 6 8 9 10 10 11 12 13 14 15 18 21 22 21 19 19 19 18 18 19 19 20 19 17 14 13 14 14 13 12 12 12 11 10 10 11 12 14 15 15 15 15 15 15 15 14 14 13 12 12 12 12 12 13 14 14 13 15 16 18 19 20 21 22 23
19 17 14 14 13 11 10 10 9 8 6 4 2 1 1 1 1 3 4 4 4 5 6 6 7 9 9 10 11 12 12 13 14 16 19 20 20 20 21 20 19 19 20 21 22 21 18 15 14 15 15 15 15 14 14 13 13 13 14 15 16 16 17 17 17 17 17 17 17 17 16 15 14 14 14 14 15 16 15 15 17 18 20 22 24 25 25
17 15 14 14 13 11 10 10 10 8 6 5 3 2 2 2 1 2 3 3 4 5 5 5 6 7 9 10 11 10 11 11 11 12 15 19 21 21 22 22 21 21 21 21 22 22 22 20 19 18 17 17 16 16 16 16 16 16 15 15 15 16 16 17 17 17 18 18 19 20 19 18 17 17 17 17 18 19 19 19 19 19 20 21 23 23 23
15 14 14 14 12 11 10 10 9 7 5 5 4 3 3 3 2 2 3 4 4 5 5 5 6 6 7 9 9 9 9 10 10 10 12 15 18 20 22 23 23 22 22 21 21 21 22 23 23 22 20 20 19 18 18 19 20 19 18 17 17 17 17 18 18 19 20 20 20 21 22 21 20 20 21 21 21 22 22 23 23 22 22 22 23 23 23
14 13 14 15 14 13 13 11 8 6 4 3 2 2 2 3 2 3 5 5 4 4 4 4 5 6 7 8 8 8 8 9 10 10 10 12 13 15 19 22 24 23 23 22 21 21 21 22 23 23 23 23 22 21 21 21 22 22 22 21 21 21 21 21 21 21 22 22 23 23 24 23 23 23 23 23 22 23 23 24 24 23 23 22 22 22 21
Wind_Direction
230 218 247 282 343 295 308 315 312 321 326 324 324 266 255 275 253 257 274 293 297 291 308 342 3 1 358 358 355 3 21 23 18 16 15 16 19 23 29 35 40 47 59 163 205 211 213 212 213 214 216 217 217 218 219 220 220 221 222 223 224 225 227 229 232 234 236 237 239 240 241 242 244 244 244 244 244 244 244 245 246 248 249 250 252 253 254
322 320 330 14 37 344 315 308 295 301 306 299 295 274 262 262 247 247 270 285 279 276 311 357 24 16 9 15 16 19 24 23 21 19 15 12 13 16 20 24 30 39 47 59 114 186 204 210 214 216 218 219 219 219 220 221 221 222 223 224 224 225 227 229 232 235 236 237 239 240 240 242 243 244 245 245 244 245 245 246 247 248 249 251 252 253 254
324 333 357 3 7 327 296 288 276 280 300 305 306 301 286 283 274 265 274 283 283 314 350 8 29 30 25 26 24 23 23 21 21 20 17 13 10 9 13 18 23 31 40 49 67 107 170 198 209 215 218 221 221 221 221 222 223 224 224 225 226 227 228 231 232 234 236 237 239 240 241 242 244 244 245 245 245 246 247 247 247 248 249 250 251 252 254
301 319 359 346 336 330 304 274 254 254 289 321 320 310 293 285 288 285 287 293 300 331 349 5 24 34 36 31 24 22 22 22 23 19 16 14 8 5 7 11 17 23 28 35 43 56 82 147 194 208 215 219 221 222 222 223 224 225 226 227 228 230 230 232 233 234 235 237 238 240 241 242 244 245 245 246 246 246 247 247 248 248 248 249 250 251 252
285 294 339 345 346 347 316 268 203 149 333 323 320 317 304 309 335 304 287 302 332 334 349 2 12 30 39 34 28 25 20 21 24 20 16 14 9 5 3 5 12 16 18 20 25 35 47 65 131 189 208 214 218 221 222 224 224 225 228 230 231 232 232 233 234 235 236 237 238 240 242 243 245 246 246 246 246 246 247 248 248 249 248 249 249 250 250
264 280 322 2 356 329 268 255 153 28 299 293 296 296 298 343 14 347 317 344 356 353 360 360 358 31 56 44 36 32 22 21 24 19 14 12 8 4 1 1 6 11 13 14 15 20 26 32 59 105 181 202 211 218 220 222 223 223 226 229 231 233 235 235 236 237 237 238 239 241 242 244 245 246 246 247 247 248 248 248 247 248 248 248 248 249 249
224 292 15 15 286 239 268 304 313 293 259 205 238 265 266 23 15 2 360 360 357 357 359 352 345 22 91 64 41 32 23 22 22 15 11 9 6 2 359 359 1 4 8 9 5 3 3 3 21 53 108 179 195 210 215 218 221 223 225 226 227 230 233 235 238 238 239 239 240 241 243 244 245 245 246 247 248 249 249 248 247 247 247 247 247 248 249
167 26 75 187 246 268 319 336 340 347 5 48 354 308 303 32 20 8 360 352 349 353 354 351 345 335 134 76 37 25 19 18 17 10 5 4 4 2 358 356 357 359 2 3 360 356 348 339 346 11 28 126 175 194 209 215 218 221 225 228 229 231 233 235 236 238 239 240 241 242 244 244 244 245 246 247 248 250 249 249 248 248 247 247 247 248 248
142 133 211 254 315 329 338 351 359 7 355 329 347 326 292 2 15 4 349 342 349 353 349 351 351 341 217 101 24 13 10 9 10 6 2 359 359 358 354 350 352 355 357 359 359 356 346 330 321 326 348 13 130 172 196 212 216 219 223 228 232 234 235 238 240 240 240 240 241 243 244 244 245 245 246 247 249 250 249 248 248 247 246 246 246 247 248
121 122 256 307 338 301 263 236 266 324 320 290 277 304 273 340 5 356 347 335 341 352 349 350 355 355 341 153 359 356 358 1 3 1 357 355 354 352 349 346 347 350 352 357 1 357 352 342 322 306 313 334 346 162 168 203 212 216 221 227 232 235 236 237 241 243 243 242 241 243 245 246 246 246 247 248 249 250 249 249 249 249 248 248 247 246 246
119 136 213 239 227 246 241 233 278 324 335 326 173 298 261 324 353 348 344 332 334 345 347 348 357 9 37 354 334 343 348 354 358 355 350 350 350 345 342 342 343 345 346 349 354 355 352 351 344 323 308 309 307 280 252 246 212 211 219 226 231 236 238 237 238 242 245 245 243 243 246 248 249 248 249 250 250 250 250 250 250 250 250 248 248 247 247
189 179 228 222 218 247 229 231 297 331 347 358 343 278 253 331 340 338 334 325 326 330 335 343 360 30 2 307 320 336 343 346 353 354 350 349 347 341 339 338 337 339 340 340 343 347 348 346 344 341 334 322 305 265 250 268 275 227 224 230 230 232 235 236 236 237 241 245 246 246 248 251 251 250 250 250 250 250 250 250 250 250 249 248 248 249 248
215 219 237 253 268 243 202 243 320 335 347 345 231 224 292 329 327 328 328 320 317 320 325 329 324 313 319 317 320 332 338 340 348 352 349 348 343 338 340 339 334 335 337 337 338 340 341 341 339 337 336 335 330 294 246 247 255 242 229 232 234 230 228 229 232 233 234 239 245 248 251 253 253 251 250 250 250 250 250 250 249 249 248 248 249 249 250
217 210 203 276 283 223 173 329 333 343 96 199 233 308 328 325 318 322 325 318 315 318 320 319 312 311 317 321 324 329 333 336 342 345 345 346 343 337 339 340 337 334 334 336 336 334 335 337 337 335 333 331 329 321 293 267 262 255 244 243 247 243 236 233 236 237 235 236 239 245 249 251 250 250 250 249 249 250 250 249 249 249 249 249 249 250 250
135 137 190 274 269 199 85 20 3 84 179 265 306 318 318 310 311 318 317 312 316 319 317 316 315 314 316 320 323 326 326 328 333 337 339 341 340 338 338 337 336 334 332 332 334 333 333 334 335 335 332 329 325 321 315 301 289 280 266 258 259 257 248 242 240 241 241 240 238 240 245 247 247 248 248 248 248 248 248 248 248 248 249 249 249 249 249
136 152 206 226 194 155 113 39 285 255 273 292 303 305 301 301 310 312 308 304 306 310 312 313 313 310 312 317 322 323 321 322 325 329 332 334 334 334 334 333 332 331 328 329 332 333 332 332 334 335 332 329 326 322 317 311 305 300 289 275 268 264 260 255 247 243 242 241 239 239 240 243 244 245 245 246 247 247 246 246 246 247 248 248 247 247 248
183 199 231 239 234 251 280 287 272 271 288 300 298 285 285 300 306 303 302 300 299 301 305 308 309 306 305 309 316 318 317 316 317 320 323 327 329 329 328 330 330 329 328 327 330 332 332 331 332 333 332 330 328 324 321 318 313 309 305 296 284 272 265 264 259 252 246 241 239 238 237 237 239 241 242 243 244 245 245 244 245 246 248 247 246 246 247
285 271 257 256 265 276 283 284 279 285 296 297 287 276 285 299 301 297 296 295 293 296 298 299 301 301 298 299 304 309 310 310 311 313 313 315 322 326 325 325 326 327 326 326 327 330 331 331 332 333 333 331 328 325 325 323 317 313 310 307 301 290 276 269 266 262 255 247 242 239 236 234 235 237 239 241 242 243 243 244 245 246 247 247 246 246 247
290 276 249 234 246 270 283 289 290 294 296 287 280 289 299 302 299 295 292 291 290 291 291 292 294 294 292 292 294 299 303 303 303 306 306 305 312 320 323 324 325 324 322 321 324 329 332 332 332 332 332 330 327 325 325 323 318 314 313 311 307 300 287 275 271 267 262 257 251 242 235 233 234 236 238 240 241 242 243 243 244 244 245 245 245 245 246
205 257 263 262 272 280 286 291 293 297 297 289 291 301 305 302 298 294 291 290 289 287 285 286 288 291 290 287 287 290 294 295 295 297 298 298 303 310 315 320 322 320 319 316 317 325 332 334 334 334 331 328 325 323 322 321 317 315 314 312 310 305 293 279 275 272 267 264 260 248 238 234 235 235 236 236 238 241 244 245 245 245 245 245 246 247 247
251 284 279 276 282 283 279 278 286 296 300 301 303 306 305 301 298 297 295 293 291 287 283 282 285 287 286 283 282 284 285 286 286 287 288 292 298 302 306 312 314 315 315 314 312 320 332 336 338 338 333 327 324 322 320 318 315 314 313 311 309 308 302 287 279 277 274 271 266 256 246 241 241 240 240 239 240 243 248 250 250 250 250 249 250 252 251
258 255 252 249 255 269 267 274 290 301 306 310 309 308 307 304 301 303 303 300 295 290 284 281 282 283 282 280 280 279 278 279 280 279 280 286 293 297 299 303 307 309 309 310 312 318 327 334 342 347 341 332 327 322 319 316 313 311 310 308 306 307 308 300 287 281 278 276 271 261 250 246 247 246 244 243 244 247 251 253 253 254 253 252 255 257 255
234 242 248 241 227 248 269 285 297 305 312 314 310 309 307 304 303 304 304 301 297 294 289 284 281 281 282 281 279 276 274 274 275 275 274 277 284 292 294 296 301 304 304 304 308 313 319 327 336 345 346 341 334 327 321 316 311 307 306 305 304 305 308 308 300 286 279 280 279 272 258 251 250 249 246 244 244 246 248 250 251 252 252 252 254 256 256
235 251 258 249 239 257 276 289 296 304 313 313 309 308 306 304 304 305 303 300 297 294 291 288 283 281 282 282 279 275 272 271 272 272 269 267 273 281 284 288 294 299 297 297 301 308 314 315 316 324 334 340 339 334 327 320 314 307 302 301 302 304 307 309 305 292 280 277 279 277 267 256 250 249 247 246 246 246 247 248 248 250 251 251 251 253 256
243 255 259 255 255 267 278 285 288 298 311 313 309 308 306 305 305 306 304 301 296 290 289 289 286 283 282 280 276 273 271 271 272 270 263 259 261 268 275 280 285 290 292 291 292 300 308 308 305 309 316 325 333 335 332 329 323 313 304 299 300 303 304 306 305 297 279 266 267 269 264 256 252 250 249 248 248 249 248 247 247 248 248 249 249 251 254
247 252 255 258 263 267 271 278 284 294 310 317 316 314 310 308 308 308 307 303 295 287 283 283 282 281 281 278 274 271 270 271 270 265 258 254 254 259 268 274 276 281 287 288 287 290 299 304 305 307 311 318 327 333 334 334 331 323 311 301 297 297 298 299 301 298 282 265 260 262 258 250 246 247 248 249 250 250 250 248 247 246 246 246 247 249 251
245 245 244 247 256 262 266 273 280 290 307 318 320 317 313 313 314 313 310 307 300 291 282 278 278 277 276 275 273 270 269 268 266 259 253 253 254 257 262 268 271 276 284 287 286 284 289 299 305 308 313 319 323 328 332 334 335 331 321 308 298 292 288 287 288 290 283 270 259 258 258 252 245 243 246 248 249 249 249 250 250 249 249 249 248 249 251
240 240 238 237 246 259 271 280 283 288 304 318 321 320 318 318 319 319 317 315 313 308 296 285 279 274 272 270 269 267 267 265 259 251 249 253 257 258 261 265 270 275 282 287 287 283 283 292 301 305 311 318 321 322 326 332 337 338 334 325 312 301 289 281 277 277 276 271 261 255 255 255 252 249 248 246 246 246 247 248 249 250 251 251 251 250 251
232 236 239 241 247 258 269 275 279 287 303 316 322 325 327 324 322 323 321 318 318 317 309 298 286 277 270 267 264 264 264 260 251 245 247 252 256 256 260 265 270 276 283 288 288 284 280 283 292 300 306 312 316 317 321 326 333 339 342 342 334 320 304 289 278 271 268 265 260 252 247 248 251 254 251 247 244 244 245 246 247 248 249 250 250 250 250
230 233 239 243 247 252 258 264 274 286 301 314 321 328 332 329 325 323 323 322 320 317 313 307 293 279 272 265 258 256 256 252 246 246 247 247 248 249 254 263 270 277 282 284 284 282 277 275 282 294 303 307 311 314 317 321 327 334 341 349 351 341 323 304 290 280 272 266 260 252 244 240 242 247 250 249 247 246 246 246 246 246 246 247 249 250 250
232 232 237 240 242 246 251 258 268 281 296 310 316 320 329 333 330 326 326 327 325 321 321 318 302 282 273 265 251 246 246 244 244 247 245 238 237 242 251 261 271 278 282 282 281 281 277 272 274 285 298 305 306 307 311 317 321 328 336 346 358 358 342 320 304 294 284 276 270 262 251 243 238 239 241 243 245 246 247 247 247 246 245 245 247 249 251
225 225 230 234 238 242 247 253 262 275 293 305 306 311 325 334 333 329 329 329 328 327 331 332 317 288 272 262 247 239 236 234 236 239 236 230 231 239 251 264 273 278 283 283 282 282 280 273 271 277 287 298 302 303 308 316 320 322 331 342 353 359 352 336 320 308 296 285 277 270 262 251 244 241 241 241 242 244 246 247 248 248 247 246 248 252 253
209 213 221 228 232 235 240 248 258 273 292 303 303 309 324 334 335 333 332 331 332 336 344 346 335 302 266 254 247 237 227 225 225 223 218 220 227 237 250 265 274 278 280 281 280 281 283 279 274 273 278 288 297 301 306 313 319 320 324 335 349 356 353 343 330 319 309 297 285 277 271 262 252 247 247 248 249 250 250 250 250 251 251 251 252 255 256
216 224 232 235 234 235 239 247 255 270 296 311 311 313 326 338 341 338 334 334 340 347 352 352 350 335 277 255 247 230 214 209 207 201 199 206 218 230 245 262 273 276 275 276 276 279 283 282 277 275 278 287 295 298 301 308 317 320 320 325 340 356 357 349 336 325 317 308 296 284 276 270 263 256 252 252 254 256 258 257 256 255 255 255 255 255 256
225 235 240 236 231 229 234 243 252 273 313 329 327 325 333 341 344 341 337 340 348 353 348 346 351 1 17 26 193 184 175 170 167 165 173 188 202 226 255 270 277 277 275 275 277 280 285 285 281 280 284 290 294 295 298 305 315 322 322 322 330 345 351 348 343 337 329 322 314 299 283 273 267 262 258 257 257 257 258 260 261 261 261 261 260 259 258
216 219 219 218 216 213 222 238 256 289 330 340 339 339 341 343 345 345 341 342 350 2 359 344 342 356 23 42 69 103 114 114 118 120 119 120 121 307 298 290 284 281 278 276 279 285 291 290 287 288 291 294 297 299 301 305 314 324 327 326 328 335 337 336 337 338 335 330 325 318 305 287 273 264 261 262 264 263 260 257 258 261 262 262 262 260 257
209 211 214 214 210 211 223 238 261 296 329 346 349 348 347 347 347 347 343 343 352 12 26 10 358 3 17 26 43 73 84 83 81 79 71 57 43 16 346 331 327 326 318 304 300 306 308 303 297 294 294 296 301 305 306 309 317 323 325 328 331 333 332 330 329 329 329 330 328 324 319 310 293 278 271 271 275 274 266 258 254 255 257 257 256 253 249
199 197 205 214 213 216 229 239 247 273 313 346 356 354 352 353 351 349 347 348 353 6 33 44 32 27 27 25 32 50 61 60 56 55 51 42 37 34 25 15 11 13 9 350 331 327 325 319 312 306 298 298 304 309 310 314 320 324 325 328 332 334 334 333 331 327 326 329 330 326 322 319 311 300 290 286 283 278 267 257 251 246 244 244 244 242 237
191 188 199 214 216 218 228 230 235 261 303 343 358 358 357 357 355 353 352 353 353 357 18 45 44 28 23 28 36 41 45 47 48 50 52 51 51 49 44 35 25 19 11 349 331 330 333 328 324 320 311 306 308 311 314 318 323 328 332 334 335 336 338 339 338 335 333 334 333 329 328 328 323 318 313 302 289 276 263 252 242 233 226 224 223 223 222
192 192 199 209 218 224 226 226 239 269 305 345 4 6 360 357 359 359 359 0 358 354 359 20 36 33 28 29 34 38 40 41 44 50 58 61 57 48 39 33 22 14 7 349 334 333 335 332 332 332 328 321 317 316 319 325 328 332 340 344 343 343 347 349 347 343 342 343 341 339 342 347 347 345 344 334 312 283 251 228 214 207 205 202 199 203 209
197 197 202 209 219 227 227 231 250 278 308 358 18 15 4 357 0 4 6 8 10 7 7 15 26 32 34 31 28 28 29 30 33 39 44 46 42 34 26 20 14 9 2 347 335 334 335 338 343 344 339 337 335 331 331 333 334 336 345 355 354 351 353 355 353 351 351 355 360 2 4 11 23 33 33 27 25 50 169 178 176 179 183 182 179 183 193
200 199 201 204 209 219 228 235 248 268 300 16 35 23 12 4 3 6 11 18 24 28 33 38 41 43 45 43 36 32 30 32 36 38 38 41 44 38 26 17 14 9 358 341 332 335 340 349 356 354 348 347 350 349 347 345 341 342 353 6 8 2 358 358 3 8 7 7 16 27 32 41 60 70 74 78 85 101 129 146 149 152 161 168 167 166 168
203 202 201 201 206 219 230 233 238 254 274 9 47 29 19 17 12 6 11 23 30 33 40 47 49 50 49 48 46 45 42 40 42 44 44 45 48 45 37 30 24 16 7 358 353 355 359 5 6 360 354 353 355 354 352 351 348 352 9 24 31 32 22 12 16 26 25 23 32 46 55 64 76 84 91 97 102 111 123 130 130 132 138 144 145 143 141
204 203 202 203 210 220 224 225 231 244 251 183 55 27 21 25 22 14 13 22 29 33 38 42 42 44 45 44 43 43 42 40 40 41 40 39 39 39 39 39 35 27 21 18 16 15 16 15 7 359 357 1 1 357 353 355 2 17 36 46 52 61 64 50 39 41 42 42 49 60 69 76 83 89 93 97 100 106 115 117 116 120 129 134 134 134 135
200 201 203 205 210 214 216 223 230 229 218 183 72 21 21 24 23 19 19 25 31 36 39 39 37 39 41 41 41 42 42 41 38 36 34 34 32 31 31 33 35 35 31 26 24 25 25 18 7 0 3 9 8 2 2 15 33 47 61 69 72 75 75 69 59 55 56 58 63 70 76 81 87 90 93 97 99 102 107 109 109 113 121 127 129 128 127
195 196 200 201 201 201 206 212 210 203 198 194 192 222 357 15 20 21 25 33 39 40 41 41 40 39 38 38 39 40 40 40 39 36 35 35 33 31 30 32 34 35 35 35 34 34 29 20 11 8 12 17 17 17 25 46 61 69 77 83 85 85 84 80 75 70 67 67 70 73 77 81 87 91 94 98 100 101 104 109 112 113 117 122 127 127 124
188 188 191 192 189 188 191 190 185 186 195 206 197 201 289 356 12 21 32 43 51 51 52 53 51 46 40 37 36 36 35 36 36 35 34 35 37 35 34 36 37 36 36 38 39 37 32 26 22 20 19 24 31 38 47 62 75 81 84 85 86 87 88 89 86 83 79 76 76 79 80 81 85 90 94 98 101 103 105 106 108 110 112 116 121 123 121
186 182 184 187 186 184 185 183 175 169 172 180 182 191 259 306 355 22 45 61 67 68 67 62 54 48 42 36 34 34 34 33 33 32 32 35 40 40 38 38 39 39 39 41 41 39 35 33 33 31 30 35 47 57 63 69 77 84 88 89 90 91 91 91 92 92 91 88 86 86 88 89 90 92 95 97 100 104 107 109 110 112 114 115 116 116 115
185 180 182 188 189 185 181 176 168 160 163 176 197 229 215 201 36 40 62 83 84 80 80 71 58 48 40 35 35 38 37 35 35 35 36 41 46 46 43 41 41 41 44 46 46 44 41 41 43 45 45 47 53 60 65 69 76 84 88 91 92 93 94 96 98 98 98 98 96 93 92 91 91 91 92 93 95 98 101 105 109 112 115 116 116 115 113
184 181 183 188 190 184 174 167 163 165 178 198 214 224 203 182 113 67 88 112 105 93 87 77 61 49 39 35 39 42 39 33 30 33 40 47 50 49 47 46 45 43 45 48 49 48 48 48 49 53 56 58 59 61 62 65 70 77 82 86 90 93 95 97 98 97 96 96 97 96 95 94 93 92 92 93 93 94 95 97 100 102 104 105 104 103 101
181 178 175 177 177 168 157 156 161 166 178 196 213 228 220 200 153 103 117 132 126 110 96 81 68 58 45 36 35 35 33 27 25 29 41 48 47 44 45 48 49 47 46 47 48 50 52 52 52 54 58 62 65 67 66 65 66 69 72 77 82 86 88 90 91 92 92 92 92 93 94 94 93 93 93 93 94 95 96 97 98 99 99 99 98 97 95
175 165 157 156 153 147 143 147 155 157 158 171 221 254 233 213 179 140 139 144 137 113 93 77 71 67 55 40 32 32 34 35 36 41 45 43 37 35 40 46 49 50 51 50 49 50 53 55 55 56 58 60 64 67 68 68 68 69 71 73 75 76 77 77 79 82 85 87 87 88 90 91 91 92 93 95 97 99 100 100 101 101 101 100 99 98 97